Roanoke, VA

1:48 AM EDT on May 30, 2017 (GMT -0400)
Roanoke Regional-Woodrum

Weather History for KROA - November, 2010

Change the Weather History Date:

Friday, November 12, 2010

  Actual Average Record
Temperature  
Mean Temperature 49 °F 50 °F  
Max Temperature 66 °F 60 °F 80 °F (1931)
Min Temperature 32 °F 39 °F 17 °F (1926)
Degree Days  
Heating Degree Days 16 16  
Month to date heating degree days 200 166  
Since 1 July heating degree days 374 463  
Cooling Degree Days 0 0  
Month to date cooling degree days 0 0  
Year to date cooling degree days 1677 1207  
Moisture  
Dew Point 30 °F    
Average Humidity 55    
Maximum Humidity 89    
Minimum Humidity 20    
Precipitation  
Precipitation 0.00 in 0.11 in 2.88 in (1937)
Month to date precipitation 1.02 1.36  
Year to date precipitation 39.04 36.27  
Snow  
Snow 0.00 in - - ()
Month to date snowfall 0.0  
Since 1 July snowfall 0.0  
Since 1 September snowfall 0.0  
Snow Depth 0.00 in    
Sea Level Pressure  
Sea Level Pressure 30.40 in    
Wind  
Wind Speed 1 mph (ENE)    
Max Wind Speed 9 mph    
Max Gust Speed 14 mph    
Visibility 10 miles    
Events      
T = Trace of Precipitation, MM = Missing Value Source: NWS Daily Summary

Daily Weather History Graph

Daily Weather History Graph

Search for Another Location

Airport or City:

Trip Planner

Search our weather history database for the weather conditions in past years. The results will help you decide how hot, cold, wet, or windy it might be!

Date:

Astronomy

Nov. 12, 2010 Rise Set
Actual Time 6:55 AM EST 5:11 PM EST
Civil Twilight 6:28 AM EST 5:39 PM EST
Nautical Twilight 5:56 AM EST 6:10 PM EST
Astronomical Twilight 5:26 AM EST 6:41 PM EST
Moon 12:25 PM EST (11/12) 11:16 PM EST (11/12)
Length of Visible Light 11h 11m
Length of Day
10h 15m
Waxing Crescent, 41% of the Moon is Illuminated
Nov 12
Waxing Crescent
Nov 13
First Quarter
Nov 21
Full
Nov 28
Last Quarter
Dec 5
New

Hourly Weather History & Observations

Time (EST) Temp. Windchill Dew Point Humidity Pressure Visibility Wind Dir Wind Speed Gust Speed Precip Events Conditions
12:54 AM 41.0 °F - 36.0 °F 82% 30.43 in 10.0 mi Calm Calm - N/A   Clear
1:54 AM 39.9 °F - 35.1 °F 83% 30.43 in 10.0 mi Calm Calm - N/A   Clear
2:54 AM 39.0 °F - 34.0 °F 82% 30.43 in 10.0 mi Calm Calm - N/A   Clear
3:54 AM 36.0 °F - 32.0 °F 86% 30.43 in 10.0 mi Calm Calm - N/A   Clear
4:54 AM 34.0 °F - 30.9 °F 89% 30.44 in 10.0 mi Calm Calm - N/A   Clear
5:54 AM 37.9 °F 35.5 °F 30.9 °F 76% 30.45 in 10.0 mi NNE 3.5 mph - N/A   Clear
6:54 AM 36.0 °F - 30.0 °F 79% 30.45 in 10.0 mi Calm Calm - N/A   Clear
7:54 AM 36.0 °F - 30.9 °F 82% 30.47 in 10.0 mi Calm Calm - N/A   Clear
8:54 AM 43.0 °F - 34.0 °F 71% 30.47 in 10.0 mi Calm Calm - N/A   Clear
9:54 AM 51.1 °F - 34.0 °F 52% 30.45 in 10.0 mi North 3.5 mph - N/A   Clear
10:54 AM 55.9 °F - 32.0 °F 40% 30.44 in 10.0 mi Variable 4.6 mph - N/A   Clear
11:54 AM 59.0 °F - 28.9 °F 32% 30.41 in 10.0 mi NE 5.8 mph - N/A   Clear
12:54 PM 62.1 °F - 25.0 °F 24% 30.39 in 10.0 mi Calm Calm - N/A   Clear
1:54 PM 62.1 °F - 25.0 °F 24% 30.37 in 10.0 mi Calm Calm - N/A   Clear
2:54 PM 64.9 °F - 26.1 °F 23% 30.35 in 10.0 mi Calm Calm - N/A   Clear
3:54 PM 64.0 °F - 23.0 °F 21% 30.35 in 10.0 mi Calm Calm - N/A   Clear
4:54 PM 62.1 °F - 21.9 °F 21% 30.35 in 10.0 mi ESE 3.5 mph - N/A   Clear
5:54 PM 59.0 °F - 23.0 °F 25% 30.35 in 10.0 mi ESE 3.5 mph - N/A   Clear
6:54 PM 53.1 °F - 28.9 °F 40% 30.37 in 10.0 mi Calm Calm - N/A   Clear
7:54 PM 50.0 °F - 30.0 °F 46% 30.37 in 10.0 mi Calm Calm - N/A   Clear
8:54 PM 46.0 °F - 30.9 °F 56% 30.37 in 10.0 mi Calm Calm - N/A   Clear
9:54 PM 39.9 °F - 30.0 °F 68% 30.37 in 10.0 mi Calm Calm - N/A   Clear
10:54 PM 37.9 °F - 28.0 °F 68% 30.35 in 10.0 mi Calm Calm - N/A   Clear
11:54 PM 36.0 °F - 28.9 °F 76% 30.35 in 10.0 mi Calm Calm - N/A   Clear